[[{"header":{"parameterUnit":"m.s-1","parameterCategory":2,"la1":30.2991,"la2":30.254,"lo1":-89.0895,"lo2":-89.0444,"dy":0.0017,"dx":0.0017,"nx":28,"ny":28,"refTime":"2025-12-25T09:00:00:Z","depth":"0","parameterNumber":2,"parameterNumberName":"U-component_of_CURRENTS"},"data":[0,0,0,0,0,0,0,0,0,0,0,0,0,0,0,0,0,0,0,0,0,0,0,0,0,0,0,0,0,0,0,0,0,0,0,0,0,0,0,0,0,0,0,0,0,0,0,0,0,0,0,0,0,0,0,0,0,0,0.2903,0.2903,0,0.2856,0.2855,0.2854,0.2809,0.2809,0.2808,0.2808,0.2713,0.2711,0.2709,0,0,0,0,0,0,0,0,0,0,0,0,0,0.2926,0.2926,0.2903,0.2903,0.2902,0.2856,0.2855,0.2854,0.2809,0.2809,0.2808,0.2808,0.2714,0.2712,0.2709,0,0,0,0,0,0,0,0,0,0,0,0,0,0.2899,0.2926,0.2903,0.2876,0.2874,0.2856,0.2855,0.2854,0.2809,0.2809,0.2808,0.2808,0.2715,0.2712,0.2708,0.2697,0,0,0.2698,0.2697,0,0,0,0,0,0,0,0,0.29,0.2897,0.2881,0.2878,0.2875,0.284,0.2829,0.28,0.2809,0.2831,0.2808,0.2808,0.2754,0.2747,0.2736,0.2692,0.2688,0.2698,0.2696,0.2694,0.2693,0,0,0,0,0,0,0,0.2902,0.2899,0.2881,0.288,0.2877,0.2858,0.2853,0.2823,0.2792,0.2829,0.2826,0.2826,0.2751,0.2739,0.2733,0.2687,0.2698,0.2695,0.2693,0.2692,0.264,0.2641,0,0,0,0,0,0,0.2916,0.2901,0.2883,0.288,0.289,0.2858,0.2853,0.285,0.2793,0.2786,0.2826,0.2824,0.2745,0.2737,0.273,0.2727,0.2694,0.2691,0.2689,0.264,0.264,0.2641,0,0,0,0,0,0,0.2917,0.2915,0.2885,0.2892,0.2887,0.2859,0.2855,0.2849,0.2839,0.2793,0.2783,0.2824,0.2744,0.2734,0.2709,0.2723,0.269,0.2687,0.2639,0.264,0.2641,0.2713,0,0,0,0,0,0,0.2918,0.2915,0.2919,0.2893,0.2887,0.288,0.2856,0.2849,0.2841,0.2838,0.2787,0.2778,0.2743,0.2714,0.2705,0.2718,0.2684,0.2638,0.2639,0.264,0.271,0.2717,0.2722,0,0,0,0,0,0.2918,0.2918,0.2919,0.2917,0.2893,0.2881,0.2876,0.2852,0.2842,0.2841,0.2808,0.2779,0.2716,0.2712,0.2701,0.2713,0.2637,0.2639,0.264,0.2707,0.2715,0.2722,0,0,0,0,0,0,0.2921,0.2914,0.2914,0.2909,0.2903,0.2874,0.287,0.2859,0.2833,0.2829,0.2783,0.2772,0.2758,0.2725,0.2722,0.2702,0.2674,0.2673,0.2728,0.2735,0.2741,0.2772,0.2681,0,0,0,0,0,0.2929,0.2931,0.2921,0.2919,0.2919,0.2899,0.2893,0.288,0.2856,0.2844,0.2813,0.278,0.2756,0.2738,0.271,0.2695,0.2742,0.2697,0.2703,0.2709,0.2728,0.2836,0.2855,0.2646,0.2646,0.2646,0,0,0.2927,0.2926,0.2925,0.2921,0.2912,0.2916,0.2893,0.2887,0.2889,0.2837,0.2826,0.28,0.2757,0.2744,0.2735,0.2718,0.2792,0.2711,0.2716,0.2732,0.284,0.2861,0.2879,0.2647,0.2647,0.2647,0,0,0.2929,0.2929,0.2935,0.2936,0.2936,0.2928,0.2933,0.2916,0.2906,0.2895,0.2865,0.2853,0.2805,0.2788,0.277,0.2793,0.2825,0.278,0.2831,0.2936,0.2955,0.2973,0.3067,0.3092,0.278,0.278,0.278,0,0.2931,0.2938,0.2934,0.2944,0.295,0.2939,0.2951,0.2941,0.2918,0.2926,0.29,0.2876,0.2829,0.2837,0.2837,0.2809,0.2881,0.2807,0.2949,0.2967,0.2984,0.3076,0.3103,0.2783,0.2783,0.2783,0.2782,0,0.2942,0.295,0.2953,0.2968,0.2975,0.298,0.2979,0.2987,0.2979,0.2976,0.2988,0.2943,0.2938,0.2915,0.2874,0.2958,0.2976,0.2953,0.294,0.3011,0.3101,0.3128,0.2789,0.2787,0.2786,0.2785,0,0,0.2929,0.2958,0.2957,0.2973,0.299,0.2994,0.3016,0.3036,0.3061,0.305,0.3088,0.3044,0.3048,0.3029,0.2994,0.306,0.3218,0.3061,0.3064,0.3171,0.3476,0.3432,0.3457,0.3245,0.325,0.3254,0.3496,0,0.2938,0.2966,0.298,0.3005,0.3019,0.3036,0.3057,0.3079,0.3092,0.3126,0.312,0.313,0.3084,0.3085,0.3155,0.3195,0.3293,0.3156,0.3376,0.3382,0.335,0.3487,0.3323,0.3521,0.3522,0.3527,0.353,0,0.2936,0.296,0.2989,0.3033,0.3042,0.3057,0.311,0.3131,0.3183,0.3197,0.3241,0.3242,0.3311,0.3262,0.3441,0.3369,0.3444,0.3482,0.3492,0.3447,0.3389,0.3447,0.357,0.3411,0.3571,0.3568,0.3565,0,0.2916,0.296,0.2986,0.2998,0.3047,0.3069,0.31,0.3151,0.3182,0.3254,0.3294,0.3381,0.342,0.3548,0.3611,0.3563,0.3825,0.3764,0.3806,0.3803,0.3702,0.3681,0.3708,0.3941,0.394,0.394,0.3939,0,0.2905,0.2921,0.2977,0.2985,0.3024,0.3065,0.3111,0.3153,0.3227,0.3276,0.3334,0.3396,0.3502,0.3634,0.3705,0.3854,0.3922,0.3865,0.3883,0.3718,0.3698,0.358,0.3509,0.3949,0.3947,0.3945,0.3943,0,0.2856,0.2896,0.2923,0.2985,0.3005,0.3029,0.3105,0.3141,0.3222,0.3298,0.3329,0.3456,0.3626,0.374,0.3937,0.3961,0.3986,0.4133,0.3923,0.3912,0.3757,0.3696,0.3703,0.3606,0.4235,0.4236,0.4236,0,0.2825,0.2835,0.2903,0.292,0.2941,0.299,0.3021,0.3114,0.316,0.3326,0.3362,0.3546,0.3654,0.3933,0.4014,0.4184,0.4028,0.4115,0.3971,0.3772,0.3719,0.3571,0.3476,0.3876,0.3873,0.3871,0.387,0,0.276,0.2787,0.2813,0.2859,0.289,0.2932,0.2992,0.3033,0.3152,0.3238,0.3378,0.3492,0.3734,0.3825,0.4021,0.4083,0.3879,0.4078,0.3939,0.3514,0.3293,0.3196,0.3685,0.3852,0.3854,0.3855,0.3856,0.3857,0.2698,0.2708,0.2749,0.2783,0.2824,0.2859,0.287,0.2954,0.3034,0.3153,0.3319,0.3467,0.3606,0.3848,0.3898,0.3788,0.3793,0.366,0.3634,0.3526,0.3324,0.3771,0.3901,0.3903,0.3905,0.3906,0.3908,0,0.2615,0.2644,0.2673,0.2713,0.2724,0.2777,0.2833,0.2836,0.2897,0.3077,0.32,0.3343,0.3411,0.3499,0.3451,0.3342,0.3212,0.3235,0.2964,0.2919,0.3384,0.3252,0.3163,0.3163,0.3163,0.3163,0.3164,0.3164,0.2573,0.2578,0.2604,0.26,0.2625,0.2615,0.2628,0.2654,0.2759,0.2854,0.2953,0.3077,0.3122,0.3117,0.2949,0.2892,0.2664,0.2585,0.2591,0.2861,0.2896,0.2928,0.2785,0.2599,0.2599,0.1983,0.1978,0.1974]},{"header":{"parameterUnit":"m.s-1","parameterCategory":2,"la1":30.2991,"la2":30.254,"lo1":-89.0895,"lo2":-89.0444,"dy":0.0017,"dx":0.0017,"nx":28,"ny":28,"refTime":"2025-12-25T09:00:00:Z","depth":"0","parameterNumber":3,"parameterNumberName":"V-component_of_CURRENTS"},"data":[0,0,0,0,0,0,0,0,0,0,0,0,0,0,0,0,0,0,0,0,0,0,0,0,0,0,0,0,0,0,0,0,0,0,0,0,0,0,0,0,0,0,0,0,0,0,0,0,0,0,0,0,0,0,0,0,0,0,-0.0252,-0.0253,0,-0.0323,-0.0323,-0.0324,-0.0362,-0.0362,-0.0362,-0.0362,-0.0462,-0.0465,-0.0468,0,0,0,0,0,0,0,0,0,0,0,0,0,-0.0212,-0.0212,-0.0252,-0.0253,-0.0254,-0.0322,-0.0323,-0.0325,-0.0362,-0.0362,-0.0362,-0.0362,-0.0461,-0.0465,-0.0468,0,0,0,0,0,0,0,0,0,0,0,0,0,-0.0251,-0.0212,-0.0252,-0.028,-0.0283,-0.0322,-0.0324,-0.0325,-0.0362,-0.0362,-0.0362,-0.0362,-0.046,-0.0464,-0.0468,-0.0494,0,0,-0.0481,-0.0482,0,0,0,0,0,0,0,0,-0.0249,-0.0253,-0.0275,-0.0278,-0.0282,-0.0333,-0.0346,-0.0382,-0.0362,-0.0333,-0.0362,-0.0362,-0.0421,-0.0428,-0.0443,-0.0498,-0.0503,-0.0481,-0.0483,-0.0485,-0.0486,0,0,0,0,0,0,0,-0.0246,-0.0251,-0.0281,-0.0276,-0.028,-0.031,-0.0315,-0.0353,-0.0378,-0.0336,-0.0339,-0.0345,-0.0423,-0.0439,-0.0445,-0.0504,-0.0481,-0.0484,-0.0487,-0.0488,-0.0581,-0.0581,0,0,0,0,0,0,-0.0232,-0.0248,-0.0279,-0.0283,-0.0264,-0.031,-0.0316,-0.0317,-0.0377,-0.0386,-0.0345,-0.0346,-0.0432,-0.0441,-0.0449,-0.0465,-0.0485,-0.0489,-0.0491,-0.0581,-0.0581,-0.0581,0,0,0,0,0,0,-0.0231,-0.0234,-0.0276,-0.0266,-0.0274,-0.0311,-0.0312,-0.0319,-0.0331,-0.0383,-0.0392,-0.0349,-0.0432,-0.0443,-0.0481,-0.047,-0.0491,-0.0494,-0.0581,-0.0581,-0.0581,-0.0508,0,0,0,0,0,0,-0.0229,-0.0233,-0.0231,-0.0265,-0.0274,-0.029,-0.0312,-0.032,-0.0334,-0.0337,-0.039,-0.0399,-0.0433,-0.0475,-0.0485,-0.0475,-0.0497,-0.0581,-0.0581,-0.0581,-0.051,-0.0505,-0.0501,0,0,0,0,0,-0.0227,-0.0223,-0.0231,-0.0235,-0.0269,-0.029,-0.0297,-0.0325,-0.0334,-0.0336,-0.0375,-0.0398,-0.0483,-0.0479,-0.0491,-0.0481,-0.0581,-0.0581,-0.0581,-0.0512,-0.0506,-0.0501,0,0,0,0,0,0,-0.0208,-0.0227,-0.0236,-0.0238,-0.0258,-0.0296,-0.0301,-0.0319,-0.0352,-0.0354,-0.0403,-0.0416,-0.0444,-0.0477,-0.0471,-0.051,-0.0534,-0.0536,-0.0477,-0.0472,-0.0468,-0.0427,-0.0501,0,0,0,0,0,-0.0201,-0.02,-0.0225,-0.0228,-0.0233,-0.0266,-0.0278,-0.0294,-0.0326,-0.034,-0.0379,-0.042,-0.0455,-0.0473,-0.0512,-0.0536,-0.0512,-0.0537,-0.0533,-0.0529,-0.0505,-0.0451,-0.0438,-0.0582,-0.0582,-0.0582,0,0,-0.0196,-0.0205,-0.0207,-0.0223,-0.0241,-0.0242,-0.0273,-0.0284,-0.0287,-0.0347,-0.0367,-0.0408,-0.0459,-0.0484,-0.0498,-0.0508,-0.0477,-0.0529,-0.0525,-0.0503,-0.0449,-0.0435,-0.0422,-0.0582,-0.0582,-0.0582,0,0,-0.0178,-0.019,-0.018,-0.019,-0.0207,-0.0225,-0.0223,-0.0255,-0.027,-0.0297,-0.0336,-0.0362,-0.0427,-0.0448,-0.047,-0.0464,-0.0456,-0.0487,-0.0429,-0.0377,-0.0363,-0.0351,-0.0298,-0.0281,-0.0482,-0.0482,-0.0482,0,-0.0168,-0.0159,-0.0182,-0.0174,-0.0175,-0.021,-0.0197,-0.022,-0.0261,-0.0264,-0.0293,-0.0353,-0.0402,-0.0409,-0.0414,-0.0449,-0.0417,-0.0443,-0.0366,-0.0353,-0.0342,-0.029,-0.0273,-0.0479,-0.0479,-0.0479,-0.048,0,-0.0143,-0.0135,-0.0129,-0.0126,-0.0133,-0.0128,-0.0153,-0.0163,-0.0187,-0.0206,-0.0221,-0.0279,-0.0304,-0.0333,-0.0377,-0.0332,-0.0333,-0.0363,-0.0367,-0.0322,-0.0272,-0.0255,-0.0473,-0.0475,-0.0476,-0.0477,0,0,-0.0109,-0.011,-0.0103,-0.0091,-0.0103,-0.0101,-0.0102,-0.0105,-0.0085,-0.0132,-0.0101,-0.0176,-0.0191,-0.0216,-0.0264,-0.0234,-0.0142,-0.0261,-0.026,-0.0186,-0.001,-0.0021,-0.0004,-0.015,-0.0147,-0.0144,-0.0004,0,-0.0075,-0.0043,-0.0056,-0.0025,-0.0008,-0.0033,-0.0024,-0.0032,-0.0044,-0.0025,-0.0068,-0.0065,-0.0151,-0.0147,-0.0132,-0.0132,-0.0095,-0.0176,-0.0084,-0.0081,-0.0077,0.0016,-0.0012,0.0111,0.0012,0.0015,0.0017,0,-0.0033,-0.0017,0.0022,0.0041,0.0048,0.006,0.0087,0.0089,0.0098,0.0095,0.0096,0.007,0.0094,0.002,0.0073,0.003,0.0021,0.0014,0.0019,0.0001,-0.0059,0.0045,0.0145,-0.0044,0.0043,0.0041,0.0039,0,0.002,0.0043,0.008,0.0085,0.0097,0.0115,0.0121,0.0131,0.0156,0.019,0.0234,0.0235,0.0272,0.0265,0.0233,0.0174,0.0311,0.0227,0.0208,0.0207,0.0198,0.0191,0.0147,0.0281,0.0281,0.028,0.028,0,0.007,0.01,0.011,0.0132,0.0182,0.0171,0.0231,0.0234,0.0278,0.0348,0.031,0.0388,0.0341,0.039,0.0329,0.0351,0.0396,0.026,0.0259,0.0219,0.0213,0.0056,-0.005,0.0285,0.0284,0.0283,0.0282,0,0.012,0.0127,0.017,0.0196,0.0209,0.0245,0.0294,0.0343,0.0376,0.048,0.0507,0.0551,0.0632,0.0583,0.0606,0.05,0.0412,0.0481,0.0439,0.0429,0.0193,0.0092,0.011,0.0039,0.0492,0.0493,0.0494,0,0.0144,0.0174,0.022,0.0253,0.0267,0.0317,0.0361,0.0391,0.0457,0.059,0.0662,0.0763,0.0864,0.0892,0.0751,0.0693,0.0499,0.0566,0.0425,0.0217,0.0104,0.0031,-0.0037,0.0446,0.0447,0.0447,0.0447,0,0.0189,0.0208,0.024,0.0313,0.0365,0.0431,0.0501,0.0573,0.0646,0.0766,0.0946,0.1047,0.1061,0.1028,0.0903,0.079,0.042,0.0566,0.0374,0.01,0.0001,-0.0081,0.0307,0.0449,0.0448,0.0448,0.0448,0.0448,0.0219,0.025,0.0302,0.037,0.0441,0.0549,0.0635,0.0744,0.0897,0.1117,0.1174,0.1401,0.1236,0.1083,0.088,0.0444,0.046,0.0278,0.0191,0.0149,0.0025,0.0418,0.0529,0.0529,0.0529,0.0529,0.053,0,0.0252,0.0291,0.0357,0.0453,0.0555,0.0582,0.0737,0.0858,0.1081,0.1323,0.1516,0.1618,0.1349,0.1019,0.0457,0.0124,-0.003,-0.0069,-0.021,-0.025,0.0128,0.0061,0.0047,0.0047,0.0047,0.0047,0.0047,0.0048,0.0274,0.0334,0.037,0.0536,0.0621,0.0786,0.0895,0.1092,0.13,0.1646,0.1863,0.2007,0.1709,0.0625,-0.0133,-0.03,-0.056,-0.0571,-0.0676,-0.0492,-0.0469,-0.0447,-0.0537,-0.0676,-0.0677,-0.1041,-0.1045,-0.1048]}],[{"header":{"parameterUnit":"m.s-1","parameterCategory":2,"la1":30.2991,"la2":30.254,"lo1":-89.0895,"lo2":-89.0444,"dy":0.0017,"dx":0.0017,"nx":28,"ny":28,"refTime":"2025-12-25T09:00:00:Z","depth":"2","parameterNumber":2,"parameterNumberName":"U-component_of_CURRENTS"},"data":[0,0,0,0,0,0,0,0,0,0,0,0,0,0,0,0,0,0,0,0,0,0,0,0,0,0,0,0,0,0,0,0,0,0,0,0,0,0,0,0,0,0,0,0,0,0,0,0,0,0,0,0,0,0,0,0,0,0,0.1907,0.1908,0,0.1886,0.1885,0.1884,0.187,0.187,0.1871,0.1871,0.1921,0.1921,0.1922,0,0,0,0,0,0,0,0,0,0,0,0,0,0.1918,0.1918,0.1907,0.1908,0.1908,0.1886,0.1885,0.1884,0.1869,0.187,0.1871,0.1872,0.192,0.1921,0.1922,0,0,0,0,0,0,0,0,0,0,0,0,0,0.19,0.1917,0.1907,0.1904,0.1904,0.1886,0.1885,0.1884,0.1869,0.187,0.1871,0.1872,0.192,0.1921,0.1922,0.1912,0,0,0.1926,0.1926,0,0,0,0,0,0,0,0,0.1901,0.1898,0.1904,0.1904,0.1904,0.1888,0.1907,0.1899,0.1869,0.1874,0.1871,0.1872,0.1921,0.1922,0.1904,0.1914,0.1916,0.1926,0.1927,0.1927,0.1928,0,0,0,0,0,0,0,0.1902,0.1899,0.1891,0.1904,0.1905,0.1898,0.1895,0.1905,0.1888,0.1874,0.1875,0.1884,0.192,0.1903,0.1905,0.1917,0.1926,0.1927,0.1928,0.1928,0.2052,0.2054,0,0,0,0,0,0,0.192,0.19,0.1892,0.1891,0.1913,0.1898,0.1895,0.1886,0.1887,0.1889,0.1883,0.1884,0.19,0.1904,0.1907,0.1977,0.1927,0.1928,0.1929,0.2049,0.2052,0.2055,0,0,0,0,0,0,0.1919,0.1918,0.1893,0.1903,0.19,0.1897,0.1887,0.1885,0.1901,0.1894,0.1897,0.1907,0.1901,0.1906,0.1924,0.1976,0.1929,0.193,0.2046,0.205,0.2054,0.2065,0,0,0,0,0,0,0.1919,0.1918,0.1925,0.1903,0.19,0.1912,0.1887,0.1885,0.1907,0.1908,0.1915,0.1918,0.1902,0.1922,0.1925,0.1977,0.1931,0.2043,0.2048,0.2052,0.2062,0.2069,0.2076,0,0,0,0,0,0.192,0.1919,0.1924,0.1925,0.1906,0.1914,0.1911,0.1907,0.1908,0.1922,0.1911,0.1919,0.1958,0.1923,0.1926,0.1981,0.204,0.2046,0.2052,0.2059,0.2068,0.2076,0,0,0,0,0,0,0.1914,0.1918,0.1923,0.1921,0.1936,0.1915,0.192,0.1929,0.1928,0.1935,0.1921,0.1923,0.1961,0.1976,0.1939,0.2038,0.2014,0.2021,0.2019,0.2027,0.2034,0.206,0.1932,0,0,0,0,0,0.1922,0.1932,0.1935,0.194,0.1943,0.1941,0.1947,0.1957,0.1953,0.1954,0.1954,0.197,0.1983,0.2007,0.2013,0.2057,0.208,0.211,0.2116,0.2122,0.215,0.2187,0.2199,0.2074,0.2074,0.2074,0,0,0.1933,0.1928,0.1941,0.1943,0.194,0.1952,0.1944,0.1969,0.1989,0.1962,0.1979,0.1982,0.1996,0.203,0.2056,0.2054,0.2175,0.2129,0.2133,0.2159,0.2194,0.2206,0.2217,0.2078,0.2077,0.2077,0,0,0.1945,0.1941,0.1957,0.1963,0.1984,0.1984,0.2005,0.201,0.2021,0.2045,0.2029,0.2064,0.2085,0.2101,0.2112,0.2175,0.2194,0.2201,0.2269,0.2304,0.2314,0.2323,0.2377,0.2391,0.2221,0.2221,0.2221,0,0.1975,0.1964,0.1966,0.1971,0.1983,0.2004,0.2027,0.2035,0.2052,0.2073,0.2067,0.2112,0.2122,0.2169,0.2195,0.2191,0.2218,0.2222,0.2309,0.2319,0.2327,0.2381,0.2396,0.2223,0.2223,0.2222,0.2222,0,0.198,0.1987,0.1989,0.2004,0.2021,0.2045,0.2064,0.2094,0.2119,0.2135,0.2191,0.2191,0.2236,0.225,0.224,0.2325,0.2326,0.2291,0.2276,0.234,0.2394,0.2409,0.2225,0.2224,0.2224,0.2223,0,0,0.2011,0.2009,0.2011,0.2012,0.2045,0.2051,0.21,0.2146,0.2199,0.2219,0.229,0.2308,0.2335,0.2355,0.2358,0.2401,0.2485,0.239,0.2392,0.2427,0.2585,0.2476,0.2481,0.2455,0.2457,0.2459,0.2599,0,0.2027,0.2041,0.2041,0.2061,0.2064,0.2098,0.2146,0.2196,0.225,0.2322,0.2351,0.2424,0.2366,0.2429,0.2446,0.2475,0.2526,0.2452,0.2537,0.2541,0.2418,0.2495,0.229,0.2386,0.2614,0.2616,0.2618,0,0.2014,0.2027,0.207,0.2084,0.2094,0.2133,0.2219,0.2272,0.2379,0.2434,0.2502,0.2536,0.2612,0.2569,0.2627,0.2582,0.2605,0.2615,0.2619,0.2527,0.2459,0.2362,0.2405,0.2643,0.2641,0.264,0.2638,0,0.1994,0.2019,0.2061,0.2068,0.2121,0.2168,0.2216,0.2323,0.2394,0.2549,0.2631,0.2684,0.2764,0.2765,0.2744,0.2726,0.2796,0.2771,0.2695,0.2688,0.2538,0.2512,0.2842,0.2842,0.2842,0.2842,0.2841,0,0.1972,0.1992,0.2066,0.2075,0.2146,0.2189,0.2303,0.2368,0.2517,0.2582,0.2703,0.2744,0.2822,0.2839,0.2806,0.2769,0.2837,0.2737,0.272,0.2538,0.2512,0.2747,0.2734,0.2847,0.2846,0.2845,0.2844,0,0.1938,0.1989,0.2018,0.2096,0.2138,0.2195,0.2336,0.2397,0.2571,0.2673,0.274,0.2855,0.2891,0.2912,0.2951,0.2864,0.2839,0.281,0.2597,0.2552,0.2717,0.2704,0.2811,0.2809,0.2807,0.2805,0.2803,0,0.1934,0.1962,0.2031,0.2055,0.2102,0.2209,0.2271,0.2426,0.2482,0.2655,0.2666,0.2817,0.28,0.2834,0.2781,0.2765,0.2809,0.2562,0.2489,0.2743,0.2716,0.2706,0.2696,0.2318,0.2313,0.2309,0.2305,0,0.1912,0.1948,0.1951,0.2013,0.2068,0.2135,0.2224,0.2275,0.2417,0.2495,0.2513,0.2544,0.2634,0.2526,0.2569,0.2501,0.2548,0.2473,0.2803,0.2331,0.2281,0.2253,0.226,0.2266,0.227,0.2273,0.2275,0.2276,0.1885,0.1877,0.1878,0.1934,0.1986,0.2008,0.2013,0.2071,0.2125,0.2165,0.2247,0.2234,0.2312,0.2273,0.2184,0.2172,0.2354,0.2254,0.2267,0.2285,0.2176,0.2121,0.2059,0.2062,0.2064,0.2066,0.2068,0,0.1792,0.178,0.1797,0.181,0.1799,0.1901,0.1926,0.1888,0.1846,0.1903,0.191,0.1779,0.1764,0.1864,0.179,0.1793,0.1772,0.1727,0.1691,0.1732,0.1768,0.1631,0.1371,0.1369,0.1366,0.1364,0,0,0.1719,0.1661,0.1664,0.161,0.1655,0.1624,0.1608,0.1551,0.1561,0.1471,0.1471,0.1625,0.1766,0.1527,0.1521,0.1433,0.1559,0.1373,0.1935,0.1931,0.1964,0.208,0.1916,0,0,0,0,0]},{"header":{"parameterUnit":"m.s-1","parameterCategory":2,"la1":30.2991,"la2":30.254,"lo1":-89.0895,"lo2":-89.0444,"dy":0.0017,"dx":0.0017,"nx":28,"ny":28,"refTime":"2025-12-25T09:00:00:Z","depth":"2","parameterNumber":3,"parameterNumberName":"V-component_of_CURRENTS"},"data":[0,0,0,0,0,0,0,0,0,0,0,0,0,0,0,0,0,0,0,0,0,0,0,0,0,0,0,0,0,0,0,0,0,0,0,0,0,0,0,0,0,0,0,0,0,0,0,0,0,0,0,0,0,0,0,0,0,0,0.0251,0.0251,0,0.0211,0.0211,0.021,0.018,0.018,0.0179,0.0179,0.0079,0.0076,0.0074,0,0,0,0,0,0,0,0,0,0,0,0,0,0.0283,0.0282,0.0251,0.0251,0.025,0.0211,0.0211,0.021,0.018,0.018,0.0179,0.0179,0.008,0.0077,0.0074,0,0,0,0,0,0,0,0,0,0,0,0,0,0.0259,0.0282,0.0251,0.023,0.0228,0.0211,0.0211,0.021,0.018,0.018,0.0179,0.0179,0.008,0.0077,0.0073,0.0061,0,0,0.0063,0.0061,0,0,0,0,0,0,0,0,0.026,0.0258,0.0234,0.0232,0.0229,0.02,0.0185,0.0157,0.018,0.0199,0.0179,0.0179,0.0114,0.0107,0.0102,0.0056,0.0052,0.0062,0.006,0.0059,0.0058,0,0,0,0,0,0,0,0.0262,0.0259,0.0236,0.0233,0.023,0.0216,0.0212,0.018,0.0158,0.0197,0.0195,0.019,0.0112,0.0106,0.0099,0.005,0.0062,0.0059,0.0057,0.0056,-0.0045,-0.0046,0,0,0,0,0,0,0.0268,0.0261,0.0237,0.0234,0.0243,0.0216,0.0212,0.021,0.016,0.0152,0.019,0.0188,0.0112,0.0104,0.0096,0.0072,0.0059,0.0055,0.0053,-0.0045,-0.0045,-0.0046,0,0,0,0,0,0,0.0269,0.0266,0.0238,0.0246,0.0242,0.0216,0.0214,0.0209,0.0197,0.0155,0.0147,0.0182,0.0111,0.0101,0.0071,0.0068,0.0054,0.005,-0.0044,-0.0045,-0.0046,0.0027,0,0,0,0,0,0,0.027,0.0267,0.0264,0.0247,0.0241,0.0228,0.0214,0.0209,0.0195,0.0192,0.0145,0.0136,0.011,0.0077,0.0068,0.0062,0.0048,-0.0043,-0.0044,-0.0045,0.0025,0.0028,0.0031,0,0,0,0,0,0.0271,0.0272,0.0264,0.0261,0.024,0.0228,0.0224,0.0204,0.0195,0.0191,0.0165,0.0137,0.0063,0.0074,0.0063,0.0057,-0.0043,-0.0044,-0.0045,0.0023,0.0028,0.0031,0,0,0,0,0,0,0.0283,0.0268,0.026,0.0255,0.0242,0.0222,0.0218,0.0204,0.0181,0.0175,0.0139,0.0128,0.0101,0.0064,0.0078,0.0022,0.0001,-0.0002,0.0057,0.0061,0.0064,0.0076,0.0045,0,0,0,0,0,0.0286,0.0283,0.0265,0.0262,0.0258,0.0238,0.0229,0.0214,0.0193,0.0183,0.0156,0.0118,0.0088,0.0065,0.0034,0.0005,-0.0021,-0.0012,-0.0008,-0.0005,-0.0005,-0.0031,-0.0029,-0.005,-0.005,-0.005,0,0,0.0288,0.0281,0.0278,0.0264,0.0254,0.0254,0.0232,0.0219,0.0216,0.0174,0.0164,0.0132,0.0084,0.0059,0.0041,0.0028,-0.0014,-0.0007,-0.0003,-0.0005,-0.0032,-0.003,-0.0028,-0.0051,-0.0051,-0.005,0,0,0.0299,0.0289,0.0292,0.0284,0.0269,0.026,0.0257,0.0238,0.0226,0.0208,0.0181,0.0152,0.0102,0.0076,0.0052,0.0049,0.001,0.0028,0.0049,0.0025,0.0027,0.0028,0.0002,0.0001,0.0024,0.0024,0.0024,0,0.03,0.0307,0.029,0.0294,0.0293,0.0266,0.0273,0.0259,0.0231,0.0225,0.0209,0.0151,0.0111,0.0085,0.0082,0.0058,0.0037,0.0046,0.0032,0.0033,0.0033,0.0006,0.0003,0.0027,0.0027,0.0026,0.0026,0,0.0316,0.0321,0.0325,0.0325,0.032,0.0321,0.0303,0.0294,0.0277,0.0261,0.0235,0.0191,0.0154,0.0133,0.0104,0.0083,0.0065,0.0049,0.0032,0.004,0.001,0.0006,0.0032,0.0031,0.003,0.0029,0,0,0.0331,0.0335,0.0339,0.035,0.0338,0.0341,0.0335,0.0328,0.0331,0.0295,0.0296,0.0238,0.0213,0.0184,0.0146,0.0117,0.0099,0.0083,0.0081,0.0074,0.0044,0.0025,0.0018,0.0086,0.0086,0.0085,0.0024,0,0.0353,0.0375,0.0368,0.0393,0.0406,0.0386,0.0385,0.0369,0.0355,0.0349,0.0299,0.0278,0.0233,0.0214,0.0182,0.0128,0.0092,0.0117,0.0021,0.0018,0.0014,0.0014,0.0026,-0.0028,0.002,0.0019,0.0019,0,0.0376,0.0393,0.0415,0.0435,0.0438,0.0439,0.0446,0.0438,0.0415,0.0404,0.0377,0.034,0.0296,0.0253,0.0167,0.0187,0.0114,0.0067,0.0063,0.0017,-0.0008,-0.0033,-0.0037,0.0012,0.0013,0.0013,0.0014,0,0.0409,0.0432,0.0454,0.0459,0.0466,0.0467,0.0465,0.0449,0.0464,0.0433,0.0452,0.0385,0.0369,0.0275,0.0172,0.0167,0.0078,0.0059,-0.003,-0.0032,-0.0057,-0.006,-0.0017,-0.0017,-0.0017,-0.0017,-0.0017,0,0.0439,0.046,0.0468,0.0483,0.0509,0.0493,0.0515,0.0504,0.0509,0.0557,0.0479,0.0513,0.0375,0.0312,0.0196,0.008,0.0092,-0.0027,-0.0049,-0.0032,-0.0033,-0.0029,-0.0029,-0.0019,-0.0019,-0.0018,-0.0018,0,0.0459,0.0464,0.05,0.052,0.0522,0.0535,0.0561,0.0595,0.0579,0.0645,0.0642,0.0609,0.0534,0.0385,0.0238,0.0127,-0.0001,-0.0056,-0.0029,-0.0047,-0.0102,-0.0098,-0.0153,-0.0154,-0.0155,-0.0156,-0.0156,0,0.0462,0.0481,0.053,0.0562,0.0567,0.0587,0.0618,0.0621,0.0682,0.0729,0.0788,0.0721,0.0703,0.0466,0.0245,0.0022,-0.0001,-0.0117,-0.0132,-0.01,-0.0116,-0.011,-0.0105,-0.0138,-0.0138,-0.0139,-0.0139,0,0.0484,0.0503,0.0544,0.0612,0.0655,0.0713,0.0766,0.0835,0.0876,0.0926,0.1001,0.0971,0.0752,0.053,0.0207,0.0062,-0.0082,-0.0132,-0.0104,-0.0102,-0.009,-0.0104,-0.0099,-0.0142,-0.0142,-0.0142,-0.0142,-0.0142,0.0506,0.0542,0.061,0.0673,0.0738,0.0851,0.0928,0.1011,0.1109,0.1191,0.1158,0.1098,0.0834,0.0418,0.0169,-0.0099,-0.0092,-0.0194,-0.0191,-0.0188,-0.0172,-0.0162,-0.0225,-0.0225,-0.0225,-0.0226,-0.0226,0,0.0546,0.0594,0.0669,0.0772,0.0875,0.089,0.1044,0.112,0.126,0.1279,0.1286,0.1024,0.0757,0.0465,0.0063,-0.0179,-0.0192,-0.0245,-0.021,-0.0206,-0.0202,-0.0185,-0.0243,-0.0244,-0.0244,-0.0245,0,0,0.0575,0.0656,0.0703,0.0875,0.0952,0.1111,0.1215,0.13,0.1344,0.1341,0.1275,0.1156,0.0811,0.0526,0.0203,-0.0017,-0.0053,-0.006,-0.0026,0.0057,0.0064,-0.0159,-0.0127,0,0,0,0,0]}],[{"header":{"parameterUnit":"m.s-1","parameterCategory":2,"la1":30.2991,"la2":30.254,"lo1":-89.0895,"lo2":-89.0444,"dy":0.0017,"dx":0.0017,"nx":28,"ny":28,"refTime":"2025-12-25T09:00:00:Z","depth":"4","parameterNumber":2,"parameterNumberName":"U-component_of_CURRENTS"},"data":[0,0,0,0,0,0,0,0,0,0,0,0,0,0,0,0,0,0,0,0,0,0,0,0,0,0,0,0,0,0,0,0,0,0,0,0,0,0,0,0,0,0,0,0,0,0,0,0,0,0,0,0,0,0,0,0,0,0,0.0804,0.0804,0,0.0864,0.0865,0.0866,0.0913,0.0914,0.0914,0.0915,0.0964,0.0965,0.0966,0,0,0,0,0,0,0,0,0,0,0,0,0,0.0753,0.0754,0.0804,0.0805,0.0805,0.0864,0.0865,0.0866,0.0913,0.0914,0.0914,0.0915,0.0964,0.0965,0.0966,0,0,0,0,0,0,0,0,0,0,0,0,0,0.079,0.0754,0.0804,0.0836,0.084,0.0864,0.0865,0.0866,0.0913,0.0914,0.0914,0.0915,0.0964,0.0965,0.0966,0.096,0,0,0.097,0.0971,0,0,0,0,0,0,0,0,0.0788,0.0792,0.0831,0.0834,0.0838,0.0882,0.0866,0.0897,0.0913,0.0885,0.0915,0.0915,0.0936,0.0939,0.0949,0.0962,0.0964,0.0971,0.0971,0.0972,0.0972,0,0,0,0,0,0,0,0.0786,0.079,0.0827,0.0831,0.0836,0.0856,0.0862,0.0872,0.0905,0.0887,0.0891,0.0898,0.0938,0.0947,0.095,0.0965,0.0971,0.0972,0.0973,0.0973,0.1055,0.1056,0,0,0,0,0,0,0.0777,0.0787,0.0826,0.0829,0.0815,0.0856,0.0863,0.0867,0.0905,0.0912,0.0897,0.09,0.0945,0.0949,0.0952,0.1014,0.0972,0.0973,0.0974,0.1054,0.1055,0.1057,0,0,0,0,0,0,0.0775,0.0779,0.0823,0.081,0.0817,0.0856,0.0861,0.0868,0.09,0.0913,0.092,0.0925,0.0946,0.095,0.0989,0.1013,0.0974,0.0975,0.1052,0.1054,0.1056,0.1094,0,0,0,0,0,0,0.0773,0.0778,0.0788,0.0809,0.0818,0.0851,0.086,0.0869,0.0902,0.0907,0.0938,0.0942,0.0947,0.0987,0.0991,0.1015,0.0976,0.105,0.1053,0.1056,0.1091,0.1097,0.1102,0,0,0,0,0,0.0771,0.078,0.0788,0.0794,0.0827,0.0851,0.0858,0.0888,0.0903,0.0919,0.0949,0.0943,0.1006,0.099,0.0993,0.1018,0.1049,0.1052,0.1055,0.1088,0.1096,0.1102,0,0,0,0,0,0,0.0761,0.0786,0.0796,0.0811,0.0835,0.086,0.088,0.0899,0.0935,0.0945,0.0959,0.0965,0.1006,0.1009,0.0991,0.1051,0.1027,0.1031,0.1051,0.1058,0.1063,0.1068,0.0977,0,0,0,0,0,0.0762,0.0779,0.0801,0.0816,0.0828,0.0858,0.0876,0.0895,0.0924,0.0942,0.0968,0.0995,0.1017,0.1037,0.1052,0.1086,0.1094,0.1105,0.1111,0.1116,0.1123,0.1157,0.1166,0.1067,0.1067,0.1067,0,0,0.076,0.0778,0.0786,0.0816,0.0837,0.0863,0.0871,0.0902,0.0932,0.094,0.0996,0.1012,0.103,0.1069,0.1087,0.1078,0.115,0.112,0.1123,0.1128,0.1161,0.117,0.1179,0.1069,0.1069,0.1069,0,0,0.0764,0.0783,0.0798,0.0823,0.086,0.0878,0.0891,0.0929,0.0957,0.1003,0.1018,0.1053,0.1094,0.1112,0.1124,0.1171,0.1175,0.1181,0.122,0.1252,0.126,0.1268,0.1297,0.1307,0.119,0.119,0.119,0,0.076,0.0784,0.0807,0.0834,0.0857,0.0887,0.0912,0.0944,0.0994,0.102,0.1028,0.1102,0.1112,0.1161,0.1182,0.1183,0.1206,0.119,0.1259,0.1266,0.1273,0.1302,0.1312,0.1192,0.1192,0.1191,0.1191,0,0.0775,0.0804,0.0817,0.086,0.0889,0.0914,0.0956,0.0994,0.1031,0.1064,0.1126,0.115,0.1197,0.1206,0.1211,0.127,0.1272,0.1256,0.1239,0.1285,0.1312,0.1322,0.1195,0.1194,0.1194,0.1193,0,0,0.0744,0.0811,0.082,0.0847,0.0905,0.0927,0.0981,0.1032,0.107,0.113,0.1184,0.1232,0.1257,0.1274,0.1287,0.1319,0.1384,0.132,0.132,0.1344,0.1469,0.1371,0.1372,0.1389,0.1391,0.1392,0.147,0,0.0749,0.079,0.0832,0.0885,0.0907,0.096,0.1005,0.1061,0.1109,0.1171,0.1218,0.1272,0.128,0.1309,0.1348,0.1376,0.1412,0.1365,0.1424,0.1426,0.1329,0.138,0.1398,0.1477,0.1479,0.1481,0.1482,0,0.0753,0.0781,0.082,0.0892,0.0909,0.0953,0.1026,0.1077,0.1164,0.1201,0.1273,0.1313,0.1391,0.1376,0.147,0.1447,0.1468,0.1481,0.1484,0.1385,0.1346,0.1421,0.15,0.1498,0.1497,0.1496,0.1495,0,0.0708,0.078,0.0807,0.0832,0.0912,0.0953,0.1009,0.1089,0.1139,0.1234,0.1283,0.1367,0.1425,0.1475,0.1526,0.151,0.161,0.1583,0.1514,0.1508,0.1555,0.1546,0.1638,0.1638,0.1638,0.1637,0.1637,0,0.0689,0.0724,0.0795,0.0811,0.0858,0.0936,0.1,0.106,0.1158,0.1221,0.131,0.1367,0.1455,0.1525,0.1553,0.1573,0.1639,0.1532,0.1524,0.157,0.1562,0.1562,0.1552,0.164,0.164,0.1639,0.1639,0,0.0646,0.0689,0.0728,0.0808,0.0837,0.088,0.0997,0.104,0.1146,0.1234,0.1276,0.1395,0.1484,0.1555,0.1628,0.1597,0.1622,0.1605,0.1665,0.1657,0.1492,0.1484,0.1539,0.1536,0.1534,0.1532,0.153,0,0.062,0.0634,0.0708,0.0731,0.0776,0.0851,0.0894,0.1011,0.1062,0.124,0.1273,0.1403,0.1471,0.1515,0.1578,0.1623,0.1599,0.1596,0.1529,0.1497,0.1484,0.1479,0.1474,0.1526,0.1526,0.1525,0.1525,0,0.0575,0.061,0.0641,0.0678,0.0727,0.0773,0.0858,0.0893,0.1037,0.1144,0.1247,0.1315,0.1406,0.1461,0.1503,0.1528,0.159,0.1571,0.1576,0.1513,0.1483,0.1471,0.1469,0.1516,0.1518,0.1518,0.1519,0,0.0545,0.055,0.059,0.0626,0.0671,0.0697,0.0751,0.0833,0.0906,0.1107,0.1133,0.1284,0.1389,0.1413,0.1457,0.1471,0.1445,0.1388,0.1401,0.1411,0.1331,0.1272,0.1244,0,0,0,0,0,0.0506,0.0513,0.0537,0.0564,0.0607,0.0635,0.0723,0.0785,0.0924,0.0967,0.1055,0.114,0.1229,0.1296,0.1287,0.1387,0.1437,0.1367,0.1373,0.1472,0.1481,0.1397,0,0,0,0,0,0,0.0483,0.0504,0.0513,0.0508,0.0518,0.0555,0.0609,0.0702,0.0736,0.0889,0.0941,0.1056,0.1151,0.1223,0.126,0.1279,0.1256,0.1453,0.145,0.1466,0.1475,0.1482,0.1399,0,0,0,0,0]},{"header":{"parameterUnit":"m.s-1","parameterCategory":2,"la1":30.2991,"la2":30.254,"lo1":-89.0895,"lo2":-89.0444,"dy":0.0017,"dx":0.0017,"nx":28,"ny":28,"refTime":"2025-12-25T09:00:00:Z","depth":"4","parameterNumber":3,"parameterNumberName":"V-component_of_CURRENTS"},"data":[0,0,0,0,0,0,0,0,0,0,0,0,0,0,0,0,0,0,0,0,0,0,0,0,0,0,0,0,0,0,0,0,0,0,0,0,0,0,0,0,0,0,0,0,0,0,0,0,0,0,0,0,0,0,0,0,0,0,0.0259,0.0259,0,0.0237,0.0237,0.0236,0.0229,0.0229,0.0229,0.0229,0.0185,0.0184,0.0183,0,0,0,0,0,0,0,0,0,0,0,0,0,0.0271,0.0271,0.026,0.0259,0.0259,0.0237,0.0237,0.0236,0.0229,0.0229,0.0229,0.0229,0.0186,0.0184,0.0183,0,0,0,0,0,0,0,0,0,0,0,0,0,0.0259,0.0271,0.026,0.0252,0.0251,0.0237,0.0237,0.0236,0.0229,0.0229,0.0229,0.0229,0.0186,0.0184,0.0183,0.0169,0,0,0.0177,0.0176,0,0,0,0,0,0,0,0,0.026,0.0259,0.0254,0.0253,0.0252,0.0235,0.0224,0.0213,0.0229,0.0238,0.0229,0.0229,0.02,0.0197,0.0193,0.0167,0.0165,0.0177,0.0176,0.0175,0.0174,0,0,0,0,0,0,0,0.0261,0.026,0.0251,0.0253,0.0252,0.0241,0.024,0.0222,0.0218,0.0237,0.0236,0.0233,0.0199,0.0195,0.0192,0.0164,0.0177,0.0175,0.0174,0.0173,0.0134,0.0134,0,0,0,0,0,0,0.0264,0.0261,0.0252,0.025,0.0256,0.0241,0.024,0.0241,0.0219,0.0216,0.0233,0.0233,0.0198,0.0194,0.019,0.0181,0.0175,0.0173,0.0172,0.0134,0.0134,0.0134,0,0,0,0,0,0,0.0265,0.0264,0.0253,0.0254,0.0252,0.0241,0.0242,0.024,0.024,0.0216,0.0213,0.0235,0.0198,0.0193,0.0179,0.0179,0.0172,0.0171,0.0134,0.0134,0.0134,0.0158,0,0,0,0,0,0,0.0265,0.0264,0.0269,0.0255,0.0252,0.0247,0.0242,0.024,0.0237,0.0237,0.0216,0.0212,0.0198,0.0182,0.0177,0.0177,0.0169,0.0134,0.0134,0.0134,0.0157,0.0159,0.016,0,0,0,0,0,0.0266,0.027,0.0269,0.0268,0.0258,0.0247,0.0245,0.0237,0.0237,0.0237,0.0224,0.0213,0.0179,0.018,0.0174,0.0174,0.0134,0.0134,0.0134,0.0156,0.0158,0.016,0,0,0,0,0,0,0.0277,0.0269,0.0268,0.027,0.0262,0.0246,0.0247,0.024,0.0231,0.0233,0.0212,0.0207,0.0194,0.0181,0.0183,0.0163,0.0155,0.0154,0.0174,0.0176,0.0177,0.0179,0.0168,0,0,0,0,0,0.0282,0.0285,0.0273,0.0276,0.0273,0.0261,0.0257,0.0252,0.024,0.0236,0.0221,0.0205,0.019,0.0181,0.0166,0.0153,0.0127,0.015,0.0152,0.0153,0.0151,0.0113,0.0111,0.0135,0.0135,0.0135,0,0,0.0285,0.0283,0.0284,0.0278,0.0273,0.0271,0.026,0.0256,0.0254,0.0232,0.0226,0.021,0.0188,0.0176,0.017,0.0165,0.0132,0.0153,0.0155,0.0152,0.0113,0.0111,0.0108,0.0135,0.0135,0.0135,0,0,0.0295,0.0295,0.0301,0.0295,0.029,0.0282,0.0282,0.0268,0.0263,0.0253,0.0238,0.0222,0.0201,0.0183,0.0172,0.0172,0.0142,0.0171,0.0179,0.0142,0.014,0.0138,0.0097,0.0091,0.0171,0.0171,0.0171,0,0.03,0.0308,0.03,0.0303,0.0302,0.0288,0.0292,0.0282,0.0265,0.0261,0.0256,0.0221,0.0202,0.0183,0.0184,0.0175,0.0149,0.0174,0.0144,0.0141,0.0138,0.0097,0.009,0.0172,0.0172,0.0172,0.0172,0,0.0312,0.0319,0.0322,0.0324,0.0321,0.0322,0.0308,0.0303,0.0296,0.0284,0.0265,0.0237,0.0217,0.0208,0.0195,0.0169,0.0154,0.0151,0.0139,0.0137,0.0094,0.0086,0.0174,0.0174,0.0173,0.0173,0,0,0.0318,0.0329,0.0331,0.0343,0.0334,0.0336,0.0329,0.0321,0.0323,0.0297,0.029,0.0257,0.0242,0.0228,0.0207,0.0173,0.0127,0.0156,0.0153,0.0115,0.0041,0.0042,0.0033,0.0119,0.0118,0.0117,0.0018,0,0.0331,0.0351,0.0348,0.0366,0.0376,0.0363,0.0363,0.0353,0.0338,0.0326,0.0288,0.0276,0.025,0.0244,0.0204,0.015,0.0108,0.0154,0.0048,0.0045,0.0046,0.0025,0.0113,0.0011,0.001,0.0008,0.0007,0,0.0341,0.0358,0.0382,0.0401,0.0404,0.0413,0.0416,0.0412,0.0385,0.0374,0.0343,0.0314,0.0263,0.0245,0.0136,0.0167,0.0105,0.0057,0.0052,0.0039,0.0032,0.0014,-0.0008,-0.0006,-0.0005,-0.0004,-0.0003,0,0.0358,0.038,0.0406,0.0411,0.0426,0.0439,0.0446,0.0432,0.0438,0.0405,0.0406,0.0334,0.0308,0.0216,0.0118,0.0125,-0.0006,-0.0008,-0.0071,-0.0072,-0.0054,-0.005,-0.0091,-0.0091,-0.0091,-0.0091,-0.009,0,0.037,0.0392,0.0424,0.0439,0.0477,0.0474,0.0505,0.0495,0.0489,0.0498,0.0439,0.0423,0.0301,0.0215,0.0118,-0.0004,-0.0011,-0.008,-0.01,-0.0042,-0.0035,-0.006,-0.0055,-0.0095,-0.0094,-0.0093,-0.0092,0,0.0379,0.0398,0.0435,0.0471,0.0488,0.0516,0.0556,0.0576,0.0564,0.057,0.0564,0.0483,0.0367,0.0238,0.0081,0.0007,-0.0114,-0.0155,-0.0091,-0.0104,-0.0159,-0.0151,-0.024,-0.0241,-0.0242,-0.0243,-0.0243,0,0.0385,0.0407,0.0465,0.0497,0.0519,0.0566,0.0601,0.0612,0.0631,0.0606,0.0608,0.0507,0.0436,0.0214,0.0073,-0.0126,-0.0146,-0.0209,-0.0182,-0.0165,-0.0175,-0.0167,-0.0159,-0.0244,-0.0244,-0.0245,-0.0245,0,0.0397,0.0422,0.0453,0.0524,0.0576,0.0629,0.0676,0.0696,0.0701,0.0698,0.064,0.0526,0.0391,0.0214,0.0059,-0.0079,-0.0168,-0.0216,-0.0216,-0.0191,-0.017,-0.0178,-0.0169,-0.0247,-0.0247,-0.0247,-0.0246,0,0.0408,0.0433,0.0483,0.0543,0.061,0.0666,0.0693,0.0714,0.0729,0.0702,0.0677,0.0535,0.0447,0.0236,0.0093,-0.0045,-0.0076,-0.0109,-0.0114,-0.0113,-0.0042,0.0005,-0.0043,0,0,0,0,0,0.0414,0.0443,0.0498,0.0565,0.0633,0.0672,0.073,0.075,0.0762,0.073,0.0704,0.0578,0.0362,0.0265,0.0127,0.0075,-0.0103,-0.0092,-0.0145,-0.0261,-0.0258,-0.0196,0,0,0,0,0,0,0.0416,0.0465,0.0493,0.0574,0.0621,0.0696,0.0735,0.0745,0.0725,0.0712,0.0597,0.0547,0.0333,0.0438,0.0123,0.0081,0.003,-0.0192,-0.0195,-0.0262,-0.026,-0.0257,-0.0193,0,0,0,0,0]}]]